#timestamp,LO_Frequency,Hit,StdDev 
1642543215.3,286047004.0,N
1642543235.1,286047003.8,N
1642543255.9,286047001.6,N
1642543275.7,286047001.8,N
1642543295.5,286047000.1,N
1642543315.4,286047000.0,N
1642543335.2,286047000.9,N
1642543355.0,286047002.0,N
1642543355.9,286047002.0,N
1642543375.8,286047000.8,N
1642543425.6,286046996.9,E
1642543435.5,286046998.8,N
1642543455.4,286047000.0,P
1642543475.2,286047000.0,N
1642543495.1,286047002.5,Y
1642543496.0,286047002.5,P
1642543515.8,286047003.9,N
1642543535.6,286047004.1,N
1642543555.5,286047004.4,N
1642543575.3,286047005.4,Y
1642543595.2,286047004.3,P
1642543615.9,286047003.9,P
1642543635.7,286047002.5,P
1642543655.6,286047003.5,Y
1642543675.4,286046998.2,P
1642543695.3,286047001.0,N
1642543715.1,286046996.6,N
1642543716.0,286046996.6,N
1642543735.8,286046999.5,N
1642543755.7,286047000.0,N
1642543775.5,286046998.5,N
1642543795.3,286046996.6,N
1642543815.2,286046999.3,N
1642543835.0,286046998.9,N
1642543835.9,286046998.9,N
1642543855.8,286047000.5,N
1642543875.6,286046998.3,N
1642543895.4,286046996.9,N
1642543915.3,286046994.9,N
1642543935.1,286046995.8,N
1642543955.8,286046995.3,N
1642543975.7,286046995.0,N
1642543995.5,286046995.1,N
1642544015.4,286046996.1,N
1642544035.2,286046996.0,N
1642544055.0,286046995.2,N
1642544055.9,286046995.2,N
1642544075.8,286046999.5,N
1642544095.6,286047000.3,N
1642544115.5,286046996.5,N
1642544135.3,286046997.6,N
1642544155.1,286046999.1,N
1642544175.9,286046997.1,N
1642544195.7,286046997.9,N
1642544215.5,286046995.4,N
1642544235.4,286046995.0,N
1642544255.2,286046997.9,N
1642544275.1,286046996.6,N
1642544276.0,286046996.6,N
1642544295.8,286046997.0,N
1642544315.6,286046997.1,N
1642544335.5,286046997.7,N
1642544355.3,286046995.4,N
1642544375.1,286046996.4,N
1642544395.9,286046995.7,N
1642544415.7,286046993.3,Y
1642544435.6,286046997.0,P
1642544455.4,286046999.5,P
1642544475.2,286046997.6,N
1642544495.1,286046996.6,Y
1642544496.0,286046996.6,P
1642544515.8,286046998.2,P
1642544535.6,286046998.1,N
1642544555.5,286046999.5,N
1642544575.3,286047001.2,N
1642544595.2,286047000.6,N
1642544615.9,286047000.9,N
1642544635.7,286047000.9,N
1642544655.6,286047000.1,N
1642544675.4,286047002.2,N
1642544695.2,286047004.1,N
1642544715.1,286047004.4,N
1642544716.0,286047004.4,N
1642544735.8,286047003.8,N
1642544755.7,286047003.7,N
1642544775.5,286047004.3,N
1642544795.3,286047000.4,N
1642544815.2,286046999.8,N
1642544835.0,286047002.6,N
1642544835.9,286047002.6,N
1642544855.7,286047000.2,N
1642544875.6,286047002.4,N
1642544895.4,286047000.7,N
1642544915.3,286046996.6,N
1642544935.1,286047000.7,N
1642544936.0,286047000.7,N
1642544955.8,286047001.0,N
1642544975.7,286047000.7,N
1642544995.5,286046998.8,N
1642545015.3,286047000.5,N
1642545035.2,286046999.5,N
1642545055.0,286046997.4,N
1642545055.9,286046997.4,N
1642545075.8,286046997.7,N
1642545095.6,286046995.5,N
1642545115.4,286046993.3,N
1642545135.3,286046993.3,N
1642545155.1,286046997.6,N
1642545175.9,286046999.1,N
1642545195.7,286046998.4,N
1642545215.5,286046997.9,N
1642545235.4,286046994.9,N
1642545255.2,286046997.5,N
1642545275.0,286046995.2,N
1642545275.9,286046995.2,N
1642545295.8,286046993.3,N
1642545315.6,286046996.1,N
1642545335.4,286046997.0,N
1642545355.3,286047000.2,N
1642545375.1,286047002.3,N
1642545395.9,286047002.1,N
1642545415.7,286047000.3,N
1642545435.5,286047002.5,N
1642545455.4,286047002.4,N
1642545475.2,286047001.0,N
1642545495.0,286047001.0,N
1642545496.0,286047001.0,N
1642545515.8,286047000.9,N
1642545535.6,286047000.6,N
1642545555.5,286047001.0,N
1642545575.3,286046998.4,N
1642545595.1,286046996.7,N
1642545615.9,286046996.7,N
1642545635.7,286046997.3,N
1642545655.6,286046996.8,N
1642545675.4,286046998.1,N
1642545695.2,286047000.8,N
1642545715.1,286047001.2,N
1642545716.0,286047001.2,N
1642545735.8,286046998.1,N
1642545755.6,286046998.6,N
1642545775.5,286046998.2,N
1642545795.3,286046999.0,N
1642545815.2,286046997.2,N
1642545835.9,286046997.0,N
1642545855.7,286046998.6,N
1642545875.6,286046999.7,N
1642545895.4,286047000.2,N
1642545915.2,286047002.0,N
1642545935.1,286046999.8,N
1642545936.0,286046999.8,N
1642545955.8,286047000.7,N
1642545975.7,286046999.1,N
1642545995.5,286046996.9,N
1642546015.3,286046995.7,N
1642546035.2,286046997.1,N
1642546055.0,286046997.9,N
1642546055.9,286046997.9,N
1642546075.7,286046996.5,N
1642546095.6,286046997.4,N
1642546115.4,286046997.8,N
1642546135.3,286046995.5,N
1642546155.1,286046997.5,N
1642546156.0,286046997.5,N
1642546175.8,286046996.7,N
1642546195.7,286046997.3,N
1642546215.5,286046995.3,N
1642546235.3,286046997.9,N
1642546255.2,286046995.1,Y
1642546275.0,286046995.3,P
1642546275.9,286046995.3,P
1642546295.8,286046996.8,N
1642546315.6,286046997.8,N
1642546335.4,286046997.8,N
1642546355.3,286046999.5,N
1642546375.1,286046998.7,N
1642546395.9,286046999.3,N
1642546415.7,286046999.4,N
1642546435.5,286046998.7,N
1642546455.4,286046999.5,N
1642546475.2,286046996.7,N
1642546495.0,286046997.1,N
1642546495.9,286046997.1,N
1642546515.8,286046997.3,N
1642546535.6,286046997.9,N
1642546555.5,286046995.9,Y
1642546575.3,286046995.4,P
1642546595.1,286046998.0,N
1642546615.9,286046995.3,P
1642546635.7,286046998.0,N
1642546655.5,286046999.1,N
1642546675.4,286046997.9,N
1642546695.2,286046996.0,Y
1642546715.1,286046995.4,P
1642546716.0,286046995.4,P
1642546735.8,286046997.4,N
1642546755.6,286046999.3,N
1642546775.5,286046997.9,N
1642546795.3,286046996.5,N
